Погода Алтай

Погода Алтай : погода сейчас, прогноз погоды и архив. Всё, что Вы хотите узнать о погоде Алтай!

Поиск расширенной информации на нашем сайте:

Другие новости

Новости СМИ2

Главная страница сайта

Новости сайта

02.10.2013

Напоминаем, что на нашем новом сайте вы можете получить высокодетализированные прогнозы погоды по пунктам России, СНГ и мира (включающие важные для авиации метеовеличины, такие как направление и скорость ветра, видимость, явления погоды, количество и форма облачности, нижняя и верхняя граница облачности), а также ознакомиться с разнообразными материалами по авиационной метеорологии и подборкой полезных ссылок на эту тему.

Сайт Метеоцентр.Азия посвящён разработке технологий оптимизации авиаметеорологического обслуживания, включая проектирование и перспективное создание нескольких автоматизированных авиаметеорологических систем:
- система выпуска высокодетальных прогностических карт явлений погоды для нижнего воздушного пространства по России и ближнему зарубежью;
- система верификации прогнозов TAF (выпускаемых синоптиками официальных АМСГ РФ и ближнего зарубежья) и AUTOTAF (выпускаемых сайтом Метеоцентр.Азия) - выявление ошибок, онлайн-сопоставление с фактической погодой METAR, автоматическое внесение коррективов в прогнозы при резком отклонении фактической погоды от прогноза, подсчёт оправдываемости прогнозов по элементам и в целом;
- система обработки, анализа и отображения авиаметеорологической информации для применения провайдерами метеорологической информации.

Рекомендуем: купить офис в бизнес центре хамовническая слобода

Погода Алтай - сегодня

Время (UTC), дата Ветер
(°,м/с) 
Видим.   Явления Облачность Т
(°С)
Тd
(°С)
f(%) Тe
(°С)
Pmin
(гПа)
dP
(гПа)
Po
(мм)
O2
(г/м3)
Тmin Tmax R s Состояние
почвы
06 26.05.17 230 (ЮЗ) н/о    н/о 
+10.6 -4.5 34 +10  1020.9  -0.5  763  296           
09 26.05.17 210 (ЮЗ) 20000 м    9/4 1000 м средняя, верхняя 
[Sc|Ac trans|Ci sp]
+13.2 -3.3 32 +13  1018.5  -0.5  761  293           
12 26.05.17 190 (Ю) н/о    н/о 
+13.8 -1.9 34 +13  1016.1  -0.5  759  291           
18 26.05.17 200 (Ю) 10 км  слаб. ливневой дождь  10/10 600 м кучево-дожд. 
[Cb calv]
+10.2 +6.4 77 +9  1010  -1.5  755  292           
21 26.05.17 200 (Ю) 20000 м  {ливн. осадки}  10/10 600 м кучево-дожд. 
[Cb calv]
+11 +6.1 72 +11  1006.4  -3.5  752  290           
03 27.05.17 240 (ЮЗ) 20000 м    4/0 средняя, верхняя 
[Ac trans|Ci fib]
+18.1 +9.9 59 +19  1006.6  0.4  752  282  +9.3       
06 27.05.17 250 (З) н/о    н/о 
+21.3 +10 48 +22  1006.4  -0.2  752  279           
09 27.05.17 250 (З) 20000 м    6/4 600 м кучево-дожд., верхняя 
[Cb calv|Ci fib]
+24.3 +9.8 40 +25  1005.2  -1.1  751  276           
12 27.05.17 290 (З) 3{11}  н/о    н/о 
+20.9 +11.3 54 +24  1004  -1.2  750  279           
15 27.05.17 170 (Ю) 2{11}  20000 м  {гроза, ливн. осадки}  9/6 600 м средняя, верхняя 
[Sc diur, vesp|Ac trans|Ci fib]
+20.5 +8 44 +21  1002.6  -1.5  749  279    +24.6  0.8     
18 27.05.17 200 (Ю) 20000 м    6/3 600 м верхняя 
[Sc|Ci sp]
+18.5 +7.9 50 +19  1002.1  -0.5  749  281           
21 27.05.17 180 (Ю) 20000 м    8/8 600 м 
[Sc]
+16.5 +7.8 56 +17  1000.8  -1.3  748  283           
00 28.05.17 170 (Ю) 20000 м    6/4 600 м верхняя 
[Sc|Ci fib]
+14.6 +6.8 59 +15  999.3  -1.4  747  284           
03 28.05.17 170 (Ю) 20000 м    6/0 верхняя 
[Ci sp]
+18.9 +7.5 47 +20  997.4  -1.8  745  280  +14.4         
06 28.05.17 180 (Ю) н/о    н/о 
+21.7 +7.9 41 +22  995  -2.4  743  276           
09 28.05.17 140 (ЮВ) 3{11}  20000 м    8/5 600 м средняя, верхняя 
[Cu med, cong|Ac trans|Ci fib]
+23.1 +7.7 37 +23  993.4  -1.5  742  274           
12 28.05.17 160 (Ю) н/о    н/о 
+19.3 +9.7 54 +21  993.3  -0.1  742  278           
15 28.05.17 320 (СЗ) 6-12{11}  20000 м    10/10 600 м кучево-дожд. 
[Cb calv]
+13.8 +9.9 77 +14  994.8  1.4  743  283    +23.6       
18 28.05.17 320 (СЗ) 4{12}  20000 м    10/10 600 м кучево-дожд. 
[Cb calv]
+4.8 +2.6 86 +3  997.4  2.5  745  295           
21 28.05.17 320 (СЗ) 4{12}  20000 м    10/10 600 м кучево-дожд. 
[Cb calv]
+2.8 +0.7 86 +1  999.9  2.5  747  298           
03 29.05.17 330 (СЗ) 4{11}  20000 м  {ливн. осадки}  10/10 600 м кучево-дожд. 
[Cb calv]
+2.1 -1.6 76 1003.2  1.3  749  300  +1.4    0.4     
06 29.05.17 320 (СЗ) н/о    н/о 
+3.5 -1.5 70 +2  1004.9  1.7  751  299           
09 29.05.17 330 (СЗ) 20000 м    10/10 600 м кучево-дожд. 
[Cb calv]
+5 -1.5 63 +4  1005.7  0.8  751  297           
12 29.05.17 340 (С) н/о    н/о 
+4.6 -1 67 +3  1006.4  0.6  752  298           
15 29.05.17 020 (С) 20000 м  в посл. час ливневой дождь  10/10 600 м кучево-дожд. 
[Cb calv]
+3.3 +0.4 81 +2  1006.5  0.1  752  299    +5.1  0.0     
Время (UTC), дата Ветер
(°,м/с) 
Видим.   Явления Облачность Т
(°С)
Тd
(°С)
f(%) Тe
(°С)
Pmin
(гПа)
dP
(гПа)
Po
(мм)
O2
(г/м3)
Тmin Tmax R s Состояние
почвы

Для получения пояснительной информации подведите курсор к названию столбца.

ПОГОДА Алтай - архив

Всё, что Вы хотите узнать о погоде Алтай - удобно и подробно!

Выберите нужную дату (начиная с 1 января 2015* года) и нажмите кнопку "Найти".
Будут отображены архивные сводки погоды по пункту Алтай, начиная с указанной даты.


Отображать данные в формате CSV (для использования в таблицах Excel)


Внимание! Наш архив погоды предназначен исключительно для личного некоммерческого использования в познавательных целях. Если Вам необходимы официальные справки о состоянии погоды (для производственных, юридических, коммерческих и т.п. целей), обращайтесь в органы Росгидромета.

*Примечание: данная дата относится к архиву по метеостанциям СССР (Россия, СНГ, Балтия).
Архив по метеостанциям Зарубежной Европы и Азии (кроме Китая) хранится 10 дней, по другим регионам земного шара (Китай, Африка, Америка, Австралия, Океания) - 1 день.

Алтай - район местоположения метеостанции


Название, широта, долгота, высота метеостанции:
Алтай 60.3°ш. 68.9°д. 30 м над ур. моря [Российская Федерация]

Дополнительная информация

В oтличие oт бoльшинства пoгoдных сайтoв мы публикуем пoдрoбную метеoинфoрмацию в детальнoм прoфессиoнальнoм фoрмате.

Характеристики температуры и влажнoсти вoздуха измеряются на высoте 2 м в тени вдали oт зданий и деревьев.
Скoрoсть ветра измеряется на высoте 10 м (на урoвне рoста челoвека скoрoсть ветра ниже в 1.5-2 раза). Если метеoстанция нахoдится в гoрoде или в лесу, тo скoрoсть ветра занижена на 2-4 м/с пo сравнению с oткрытым местoм. Скoрoсть ветра над акватoриями крупных рек и oзёр, а также на вершинах хoлмoв на 2-5 м/с выше, чем в oбычных услoвиях.
Атмoсфернoе давление в разных тoчках местнoсти мoжет значительнo oтличаться oт давления на метеoстанции, в зависимoсти oт услoвий рельефа (при пoдъёме на 10 м давление пoнижается примернo на 1 мм рт.ст.).